TimeEST,TemperatureF,Dew PointF,Humidity,Sea Level PressureIn,VisibilityMPH,Wind Direction,Wind SpeedMPH,Gust SpeedMPH,PrecipitationIn,Events,Conditions,WindDirDegrees,DateUTC
12:55 AM,41.0,36.0,82,30.40,10.0,North,3.5,-,N/A,,Clear,360,2012-11-17 05:55:00
1:55 AM,40.8,35.6,82,30.41,10.0,North,3.5,-,N/A,,Clear,350,2012-11-17 06:55:00
2:55 AM,40.8,35.2,80,30.41,10.0,North,4.6,-,N/A,,Clear,350,2012-11-17 07:55:00
3:55 AM,39.9,34.9,82,30.43,10.0,Calm,Calm,-,N/A,,Clear,0,2012-11-17 08:55:00
4:55 AM,39.9,34.9,82,30.44,10.0,Variable,4.6,-,N/A,,Clear,0,2012-11-17 09:55:00
5:55 AM,39.2,34.7,84,30.45,10.0,North,3.5,-,N/A,,Clear,350,2012-11-17 10:55:00
6:55 AM,39.4,34.5,83,30.47,10.0,North,4.6,-,N/A,,Clear,360,2012-11-17 11:55:00
7:55 AM,41.5,34.5,76,30.49,10.0,North,5.8,-,N/A,,Clear,10,2012-11-17 12:55:00
8:55 AM,46.0,36.1,68,30.51,10.0,NNE,5.8,-,N/A,,Clear,30,2012-11-17 13:55:00
9:55 AM,49.1,37.6,64,30.51,10.0,NNE,8.1,-,N/A,,Clear,30,2012-11-17 14:55:00
10:55 AM,52.7,36.7,55,30.51,10.0,North,11.5,-,N/A,,Clear,10,2012-11-17 15:55:00
11:55 AM,53.8,40.5,61,30.51,10.0,NE,8.1,-,N/A,,Clear,40,2012-11-17 16:55:00
12:11 PM,55.4,41.0,58,30.51,10.0,NNE,6.9,-,N/A,,Mostly Cloudy,20,2012-11-17 17:11:00
12:15 PM,55.4,41.0,58,30.51,10.0,ENE,11.5,-,N/A,,Scattered Clouds,60,2012-11-17 17:15:00
12:25 PM,55.4,41.0,58,30.50,10.0,NNE,10.4,-,N/A,,Mostly Cloudy,20,2012-11-17 17:25:00
12:32 PM,53.6,41.0,62,30.50,10.0,NNE,6.9,-,N/A,,Scattered Clouds,30,2012-11-17 17:32:00
12:55 PM,55.8,42.1,60,30.49,10.0,NNE,11.5,-,N/A,,Scattered Clouds,20,2012-11-17 17:55:00
1:55 PM,54.9,39.6,56,30.49,10.0,NE,8.1,-,N/A,,Clear,40,2012-11-17 18:55:00
2:55 PM,54.3,40.6,60,30.49,10.0,NNE,10.4,-,N/A,,Mostly Cloudy,30,2012-11-17 19:55:00
3:55 PM,52.2,40.5,64,30.50,10.0,North,6.9,-,N/A,,Overcast,10,2012-11-17 20:55:00
4:55 PM,50.7,40.3,67,30.50,10.0,NNE,8.1,-,N/A,,Clear,20,2012-11-17 21:55:00
5:55 PM,50.2,41.0,71,30.51,10.0,NNE,5.8,-,N/A,,Overcast,30,2012-11-17 22:55:00
6:55 PM,49.5,41.7,75,30.51,10.0,North,5.8,-,N/A,,Overcast,10,2012-11-17 23:55:00
7:55 PM,49.3,42.1,76,30.52,10.0,NNE,4.6,-,N/A,,Overcast,30,2012-11-18 00:55:00
8:55 PM,49.1,43.3,81,30.52,10.0,NE,6.9,-,N/A,,Scattered Clouds,40,2012-11-18 01:55:00
9:55 PM,48.9,43.7,82,30.51,10.0,Variable,5.8,-,N/A,,Clear,0,2012-11-18 02:55:00
10:55 PM,48.6,44.1,84,30.51,10.0,NE,8.1,-,N/A,,Partly Cloudy,40,2012-11-18 03:55:00
11:06 PM,48.2,44.6,87,30.50,10.0,NNE,5.8,-,N/A,,Mostly Cloudy,30,2012-11-18 04:06:00
11:55 PM,48.2,44.2,86,30.49,10.0,Variable,5.8,-,N/A,,Mostly Cloudy,0,2012-11-18 04:55:00
11:57 PM,48.2,44.6,87,30.49,10.0,NE,8.1,-,N/A,,Mostly Cloudy,40,2012-11-18 04:57:00